Wind_Speed
26 26 25 23 22 22 21 21 20 20 20 20 20 20 20 19 19 18 17 16 16 15 14 13 13 12 12 11 10 10 10 9 9 9 9 9 9 9 10 10 10 10 10 10 9 9 8 9 9 9 9 9 9 9 9 9 9 10 9 10 10 10 11 11 11 11 10 11 11 11 10 11 11 12 12 12 12 13 13 13 13 13 12 11 13
26 27 27 26 24 23 22 21 21 21 20 21 21 21 21 21 20 19 19 18 16 16 15 14 14 13 12 12 11 11 10 10 10 10 9 10 10 10 11 11 11 11 11 11 11 10 10 10 10 9 10 10 10 10 10 10 9 9 10 10 10 11 11 11 11 12 11 12 12 11 11 12 12 13 13 13 13 14 14 15 14 14 13 11 10
27 27 28 28 27 25 23 22 21 21 21 21 21 21 22 21 21 21 20 19 17 17 16 15 14 14 13 13 12 12 11 11 11 10 10 10 10 11 11 12 12 12 12 12 12 11 11 10 10 10 10 10 10 11 11 11 10 10 10 10 11 11 11 11 12 12 12 12 12 12 12 12 12 13 13 13 13 13 13 14 15 14 15 14 10
28 28 27 28 28 27 25 23 22 21 21 22 22 22 22 22 22 22 22 20 19 18 17 16 16 15 14 14 13 12 11 11 11 11 11 11 11 11 12 13 13 13 13 13 12 12 11 10 10 10 10 10 11 11 11 12 12 11 11 11 11 11 11 12 12 12 12 12 12 12 12 12 12 12 12 12 12 13 13 14 15 14 15 16 13
30 30 29 29 29 28 27 26 24 23 22 22 22 23 23 22 23 23 23 22 21 20 19 18 17 17 16 15 13 12 11 11 11 11 11 11 11 12 13 13 14 14 14 14 13 13 12 11 10 10 10 10 10 11 11 12 13 13 12 12 12 12 11 11 12 12 12 12 12 12 12 12 12 12 12 13 13 13 14 14 15 15 16 17 15
32 32 30 29 28 28 28 27 27 26 25 24 24 23 22 23 23 23 23 23 22 21 20 20 19 19 18 16 14 13 12 12 11 11 11 11 12 13 13 14 14 14 15 15 14 14 13 12 11 11 10 10 10 10 11 12 13 13 14 14 14 13 12 12 11 12 12 12 12 12 12 12 12 13 13 13 13 14 14 15 16 16 16 17 16
31 31 30 29 28 28 28 28 28 28 27 27 26 24 23 23 23 24 24 24 23 23 22 21 21 20 19 18 16 15 14 13 13 12 12 12 12 13 13 14 15 15 15 15 16 16 15 14 13 12 11 11 10 10 11 11 12 13 14 14 14 15 14 13 13 12 12 12 12 12 12 12 12 13 12 13 13 13 13 14 15 16 15 15 15
28 28 28 28 28 28 29 28 29 29 29 29 27 26 25 24 24 24 24 24 24 23 23 23 23 22 20 19 18 16 15 15 15 14 13 13 13 13 13 14 15 16 16 16 16 17 17 16 15 13 12 11 11 11 11 11 12 12 13 14 14 15 14 14 14 14 13 13 12 12 11 11 12 12 11 11 11 11 11 12 14 14 13 13 14
26 27 27 28 28 29 29 28 29 29 29 29 28 28 27 26 26 25 24 24 24 25 24 24 24 23 22 21 19 18 17 17 17 16 16 15 15 14 14 14 15 16 16 16 17 17 18 18 18 16 14 13 12 12 12 12 12 13 13 14 14 14 14 14 14 14 13 13 12 11 10 11 11 11 10 9 9 10 11 12 14 15 15 15 16
28 28 28 29 29 29 29 28 28 28 29 29 29 29 29 28 28 26 25 25 25 25 25 25 24 23 23 22 21 20 19 18 19 19 18 17 17 16 15 15 15 15 16 16 17 17 18 18 19 19 17 16 15 14 14 13 13 14 14 14 15 14 14 14 14 14 13 13 12 11 11 11 11 11 10 9 9 11 12 14 15 16 16 16 17
31 30 30 31 30 28 27 27 27 28 28 29 29 29 29 29 29 28 27 26 26 26 26 25 25 24 24 23 22 21 20 20 20 21 20 20 19 18 17 17 16 16 16 16 16 17 17 17 18 18 18 18 18 17 17 16 16 15 15 16 16 16 16 16 15 15 14 14 13 13 13 13 13 13 12 11 10 10 12 13 14 15 14 14 15
34 33 33 33 31 29 27 26 26 26 28 28 29 29 29 29 29 29 28 28 27 27 27 26 26 25 25 24 23 22 21 21 22 23 22 22 21 20 19 18 18 17 16 16 16 17 17 17 17 17 18 19 19 19 19 19 18 18 17 17 16 16 17 17 17 17 16 16 15 15 15 14 14 14 14 12 10 10 11 11 12 13 12 13 14
37 35 35 34 33 31 29 27 25 25 26 27 28 29 30 30 29 29 30 30 30 29 28 28 27 27 26 25 24 24 23 23 23 24 24 24 23 22 21 20 19 18 17 17 17 17 17 17 17 17 17 18 18 19 20 20 20 20 19 18 17 17 18 17 17 17 17 16 16 15 15 15 15 14 14 12 11 10 11 11 12 13 13 14 14
40 38 37 35 34 34 32 30 28 26 26 26 27 28 29 30 30 31 31 32 31 31 30 30 30 29 28 27 26 26 25 24 24 25 26 26 25 24 23 21 20 19 18 17 17 17 17 17 17 17 17 18 18 18 19 20 20 21 20 19 19 19 18 18 18 18 17 16 15 15 16 15 15 14 13 12 12 12 12 13 14 15 15 15 15
40 41 39 36 36 36 34 32 30 29 28 28 28 28 29 29 31 32 33 34 33 32 32 32 32 31 31 30 29 28 28 27 26 26 27 28 27 26 25 23 21 20 19 19 18 18 18 18 18 18 18 18 18 19 19 20 20 19 19 19 19 19 18 18 18 18 16 15 15 15 16 16 15 15 14 14 14 14 14 15 16 16 16 16 17
37 40 40 38 37 38 36 35 33 31 31 31 31 32 32 32 32 33 35 36 34 34 33 34 34 33 33 33 32 31 31 31 29 29 30 31 30 29 27 24 22 21 21 20 20 19 19 18 19 19 19 19 19 20 20 20 20 19 19 19 19 19 18 18 18 18 16 15 14 15 15 15 16 17 17 16 16 16 17 18 19 18 17 17 18
37 38 39 38 38 38 38 37 36 35 34 34 35 35 34 33 33 34 35 35 35 34 35 36 36 35 34 35 34 33 33 34 33 32 33 34 34 32 29 27 25 23 23 23 22 21 20 20 20 20 20 20 21 21 22 22 20 19 19 20 20 19 19 19 20 19 18 16 15 15 16 16 17 18 19 19 20 19 19 20 21 20 18 18 19
41 39 39 38 38 38 38 39 39 39 38 38 38 37 35 34 34 34 34 34 33 32 32 34 35 35 35 36 35 35 35 35 35 35 35 36 36 34 32 30 28 25 24 24 24 24 23 22 22 21 21 21 22 22 23 23 22 21 20 21 21 20 20 21 21 21 20 19 17 16 17 18 19 19 20 21 22 22 22 22 23 23 21 20 20
45 42 40 39 39 39 39 39 41 42 42 42 41 38 36 36 36 36 36 34 32 31 31 32 33 33 34 35 35 35 36 37 36 35 35 35 36 36 35 32 29 27 25 25 25 25 25 24 24 23 22 23 23 23 24 24 24 23 22 22 21 20 22 23 23 22 21 20 20 19 19 20 20 21 22 23 25 25 24 24 25 25 24 23 22
49 47 44 41 40 41 41 40 41 42 43 45 44 42 40 40 39 38 37 35 32 31 32 32 32 33 34 35 35 35 36 38 37 36 36 36 36 36 36 34 30 27 26 26 26 26 26 26 25 24 24 24 25 25 25 25 25 24 23 22 21 22 24 25 24 23 23 22 21 21 21 22 22 23 24 26 27 28 27 26 26 26 26 25 25
53 51 48 45 43 44 45 44 43 44 45 47 48 45 43 43 42 39 38 36 33 32 32 32 32 32 34 35 36 34 35 38 37 35 35 36 37 38 37 34 31 29 28 28 27 27 27 26 25 24 24 25 25 25 25 26 26 26 23 21 22 24 25 25 25 25 24 23 23 23 23 24 25 26 27 28 29 30 30 29 29 28 28 27 27
56 54 52 50 47 47 48 48 48 48 47 48 48 47 46 44 42 39 39 39 37 35 34 34 33 33 34 34 34 34 34 36 36 35 36 36 37 38 38 35 32 31 30 29 28 28 27 26 26 26 25 26 27 26 25 26 26 25 23 21 23 24 24 24 25 24 23 23 24 23 24 25 26 28 30 31 32 32 32 31 31 31 31 31 30
60 58 56 53 51 50 51 51 51 52 51 50 49 48 47 46 43 41 40 41 40 38 37 36 35 35 34 34 34 34 34 34 34 36 36 36 36 37 37 36 34 32 32 31 30 29 29 28 28 27 27 27 28 27 26 26 25 24 22 22 23 23 23 23 23 22 21 21 21 22 23 26 27 28 30 32 33 33 33 32 31 31 32 33 33
64 62 59 57 55 54 54 54 54 54 55 54 52 49 48 48 47 45 43 41 40 38 37 37 37 36 36 36 35 36 36 35 34 35 34 35 36 38 38 37 35 34 33 33 33 31 29 29 29 29 28 29 29 29 28 26 24 22 22 23 23 23 22 21 20 20 20 20 20 21 23 25 26 28 29 31 31 32 32 32 31 31 30 31 32
67 66 63 61 59 59 58 57 57 57 58 58 56 53 52 51 50 49 47 44 41 39 38 38 39 39 39 38 37 38 39 38 37 37 37 36 37 39 38 36 37 36 34 33 34 33 31 30 30 30 30 29 29 29 28 26 24 23 23 23 23 21 20 19 19 20 21 21 22 22 23 24 26 27 28 29 30 30 31 31 30 30 30 29 29
69 69 67 65 64 64 63 62 61 60 61 61 60 58 56 55 53 53 52 48 44 42 41 41 41 42 42 41 40 40 40 40 41 42 42 40 40 41 40 37 38 41 38 35 35 35 34 33 32 31 30 30 29 29 28 26 24 22 22 22 21 20 20 20 21 21 21 21 22 22 23 24 25 26 27 27 27 28 30 30 29 29 29 29 28
70 71 71 70 69 68 68 67 66 65 65 65 63 61 60 58 56 56 55 52 48 45 44 44 43 43 43 43 43 42 42 42 43 44 44 43 42 42 42 39 39 42 42 40 38 36 34 33 33 32 31 30 29 28 27 25 23 22 21 22 22 22 22 22 22 21 21 21 22 22 23 24 25 25 25 26 26 27 29 29 28 28 28 29 27
70 71 73 73 73 73 72 71 70 69 69 69 68 66 63 62 60 58 57 55 52 49 47 45 45 45 44 44 44 45 45 44 44 44 46 46 44 44 44 43 41 40 41 42 42 39 35 34 33 33 31 29 27 25 23 22 22 22 22 23 23 23 23 23 22 22 22 22 23 23 24 24 24 25 25 25 25 27 29 29 29 28 29 28 27
70 72 73 75 76 77 76 75 74 73 72 72 72 71 69 66 65 63 60 58 56 54 51 49 47 47 46 45 45 47 47 46 44 44 46 46 46 45 45 43 41 39 39 40 41 39 37 34 33 31 29 25 22 21 20 21 21 21 21 22 22 22 23 23 22 22 22 23 23 23 24 23 23 24 24 24 24 26 28 28 28 28 29 29 28
69 72 74 75 77 78 78 79 79 78 77 76 76 75 74 73 71 69 65 61 59 58 57 54 51 50 48 47 47 47 47 48 47 45 45 45 46 47 46 43 41 39 39 39 39 38 36 35 33 31 28 23 20 19 19 20 20 20 20 20 21 21 22 22 22 22 22 23 23 23 23 23 22 23 24 24 25 26 27 27 27 28 29 29 29
66 70 74 76 77 77 78 79 80 81 81 81 80 79 78 78 77 75 72 68 64 62 61 59 56 53 50 49 49 49 48 49 49 47 45 45 46 47 47 45 44 42 41 41 39 38 37 36 35 33 29 25 22 20 20 20 20 21 21 21 21 21 22 22 22 23 23 23 24 24 24 23 23 24 25 25 26 27 28 29 29 29 29 30 31
62 65 70 74 76 78 78 78 79 79 80 81 82 82 81 80 80 80 78 75 70 67 65 63 61 58 54 51 50 51 51 51 50 49 48 46 46 47 47 47 46 44 43 42 40 37 35 34 33 32 30 26 23 21 21 21 22 22 23 23 23 22 22 23 24 25 25 24 25 25 26 26 26 26 27 28 28 29 30 31 31 31 32 32 32
62 63 65 69 73 76 78 79 79 79 79 79 80 81 81 81 81 81 80 78 75 72 70 68 65 62 60 56 53 51 52 53 53 51 50 48 48 47 47 47 47 45 43 40 36 33 30 27 27 29 28 25 22 21 22 23 24 25 26 26 26 26 26 26 26 27 27 27 27 27 27 27 28 29 29 29 30 31 31 32 32 33 34 34 34
64 64 64 66 69 72 76 78 80 80 80 80 79 80 80 80 80 80 79 79 77 75 73 71 69 65 64 62 58 55 54 55 55 54 52 50 50 49 48 48 48 46 41 37 33 30 29 28 30 33 32 28 25 25 25 26 27 28 29 29 30 30 30 30 30 29 29 29 29 29 28 29 30 30 30 30 31 31 32 32 33 34 35 35 35
68 67 67 67 67 69 71 75 78 80 80 81 81 81 80 79 79 79 78 77 76 74 72 71 70 67 66 65 63 59 57 56 56 57 55 52 51 52 51 50 50 48 45 41 38 35 35 33 34 36 36 32 30 31 31 32 33 32 32 32 32 33 33 33 32 32 31 31 31 31 30 31 31 31 31 32 32 33 33 33 34 35 36 36 36
72 72 71 71 70 70 70 71 74 77 79 80 81 82 82 81 79 78 77 76 74 72 70 69 69 68 67 66 65 63 61 59 59 59 58 55 53 53 53 53 53 52 52 51 50 48 43 38 37 39 38 35 35 35 36 37 38 37 36 35 35 35 36 36 36 35 34 33 33 33 33 33 33 33 34 35 35 35 35 35 36 37 38 38 38
74 75 75 75 74 73 72 72 73 74 76 78 80 82 83 83 81 79 78 77 75 72 70 69 69 69 68 68 67 65 64 63 61 60 60 58 56 54 53 54 54 55 57 57 57 54 49 43 41 43 43 40 39 39 40 40 40 40 39 38 37 37 38 38 38 37 37 35 35 35 36 36 36 36 36 36 37 37 36 36 38 39 39 40 40
72 74 76 77 77 77 76 75 74 74 75 76 78 80 82 83 83 82 80 79 78 75 72 69 69 70 70 69 68 67 66 65 63 62 61 60 59 57 56 55 56 56 57 57 56 55 53 49 46 46 47 46 44 43 44 44 44 43 43 41 40 39 39 39 39 39 38 36 36 37 38 38 37 37 37 36 36 36 37 37 38 39 41 42 42
65 69 73 75 78 79 80 79 77 76 76 76 77 78 80 81 83 83 83 81 80 78 76 72 70 71 71 70 69 67 66 65 64 63 61 61 62 61 59 58 58 58 57 56 56 56 55 52 49 49 50 50 49 47 47 47 47 47 47 46 44 42 41 40 40 39 38 38 38 39 40 39 38 38 38 37 37 37 38 39 39 40 42 43 42
58 62 66 70 74 77 80 81 80 80 79 78 78 78 78 80 81 82 84 83 82 81 79 76 73 72 73 72 70 69 68 67 66 64 61 60 61 62 62 61 60 59 58 57 57 58 57 55 53 52 53 53 53 52 51 50 49 49 49 49 48 46 44 43 41 39 38 39 40 41 42 42 41 41 41 40 39 39 40 42 42 42 42 42 43
54 56 59 63 67 71 75 78 80 82 82 82 81 79 79 79 79 81 83 84 84 83 82 79 77 75 74 74 73 71 70 70 68 67 65 62 60 60 62 62 61 60 60 60 60 60 59 58 56 56 56 56 56 56 55 53 52 51 51 50 49 48 47 45 42 41 40 40 42 44 44 44 43 44 45 44 43 42 43 43 44 44 44 43 43
52 53 55 57 59 63 67 72 77 80 82 83 84 83 81 80 79 79 81 83 84 85 84 82 80 77 76 76 76 74 73 72 71 70 69 67 64 61 60 61 62 61 62 62 61 61 61 60 58 58 59 59 59 58 58 57 55 53 52 51 50 48 47 46 44 42 42 43 45 46 46 45 45 46 45 44 44 44 44 45 44 44 43 43 43
52 52 53 54 55 57 60 65 70 75 79 83 84 85 84 82 80 79 80 81 83 85 85 84 83 80 78 77 77 76 75 74 73 73 71 68 66 64 61 61 62 63 63 62 61 60 61 61 60 60 61 62 60 59 59 59 57 54 53 52 51 50 49 48 46 44 44 45 47 47 46 45 46 46 45 44 44 44 44 44 43 42 41 42 43
52 52 52 53 53 53 55 59 63 69 74 79 82 85 86 85 83 82 80 80 82 83 84 85 85 83 81 78 77 77 76 75 74 74 73 70 67 65 63 62 63 63 63 63 62 61 62 62 61 61 62 63 61 60 60 60 58 56 55 55 54 53 52 50 49 47 45 45 46 46 45 45 46 46 44 43 42 41 42 42 42 41 41 42 44
52 52 52 52 52 52 52 54 58 63 68 73 78 82 84 85 85 84 82 81 81 82 83 85 85 85 84 81 77 75 76 75 73 73 74 72 69 67 66 64 64 64 64 64 65 66 66 65 64 63 63 63 62 60 59 59 58 57 56 56 55 54 53 52 51 49 47 47 46 47 47 47 46 45 43 41 39 39 40 41 41 42 42 43 44
51 51 51 51 50 50 50 51 54 58 62 67 72 76 80 83 85 85 84 82 81 81 81 83 84 85 85 84 80 76 74 74 73 72 73 74 72 70 69 68 67 66 66 66 67 68 69 68 67 66 65 64 62 61 60 59 58 56 55 54 54 53 52 51 51 50 49 49 48 48 48 47 46 44 43 41 40 40 41 41 42 43 44 44 44
50 50 50 50 49 48 48 49 51 54 58 62 66 71 75 79 82 83 84 83 82 80 80 81 82 83 84 85 84 80 76 74 73 72 72 73 73 71 70 69 69 68 69 69 70 70 71 69 68 67 66 64 64 63 62 60 58 56 53 52 52 52 52 51 51 51 51 51 50 49 49 48 47 46 44 44 43 43 42 42 43 44 46 45 44
49 49 49 49 48 47 47 47 48 51 54 57 61 65 70 73 77 80 81 81 81 80 79 79 79 80 82 83 84 83 78 74 73 72 71 72 72 71 70 69 69 69 69 70 72 73 72 68 67 66 66 66 65 65 63 61 58 56 53 52 52 52 52 52 52 52 52 52 52 51 50 50 49 48 46 46 45 45 45 44 43 44 46 46 45
48 48 48 48 48 46 45 45 46 48 50 53 56 60 64 68 71 74 76 78 78 78 78 77 77 78 79 80 82 83 81 77 74 72 71 70 70 69 68 68 69 69 68 69 73 74 72 66 64 65 67 67 67 66 63 60 58 56 54 54 53 53 53 53 53 53 53 53 53 53 53 52 51 50 49 47 47 46 46 46 45 45 46 47 46
47 47 47 47 46 45 44 44 45 46 48 49 51 54 58 63 67 69 71 73 73 74 75 75 74 75 76 78 79 80 81 79 77 74 71 69 68 68 68 68 67 66 67 69 73 74 71 67 66 68 70 71 70 66 62 59 57 55 54 53 54 54 54 54 54 54 55 55 55 55 55 54 54 53 52 50 49 48 47 46 46 46 47 48 47
45 46 46 46 44 43 43 43 43 44 46 47 47 48 52 57 62 65 66 67 68 69 70 71 71 71 72 74 75 77 78 79 79 76 73 70 68 68 68 68 67 67 67 70 72 73 72 71 71 73 74 74 71 66 62 58 56 54 53 53 53 54 54 55 55 56 56 56 57 57 57 56 55 55 54 53 52 51 49 48 47 48 49 50 50
Wind_Direction
219 218 221 224 226 227 226 224 222 220 218 215 213 212 212 215 217 218 218 215 213 215 217 217 218 217 216 215 218 221 223 223 224 227 230 232 234 232 231 230 226 225 228 231 233 234 236 237 237 236 236 237 236 235 233 230 232 235 237 238 235 230 229 228 231 234 233 236 241 241 241 243 247 251 254 258 263 268 272 275 278 279 278 277 281
224 222 221 223 226 229 229 229 227 225 223 221 218 216 214 216 218 220 222 220 216 217 219 219 218 218 218 217 218 222 226 228 227 227 228 230 232 233 232 232 231 230 230 231 232 233 236 238 239 238 238 238 238 237 237 236 233 234 237 240 242 242 239 236 238 239 238 239 244 247 249 252 255 258 261 265 266 270 275 280 283 286 288 284 278
227 226 224 224 225 229 231 231 231 229 228 226 224 221 218 217 219 221 223 222 220 220 221 221 219 219 219 219 220 223 227 231 232 232 232 233 233 234 233 233 232 232 232 231 232 233 235 237 240 242 242 242 240 238 238 239 238 236 236 238 240 243 245 244 245 246 246 246 247 250 252 255 259 262 266 270 272 275 279 284 289 292 294 295 292
227 226 226 226 226 228 231 233 234 234 233 232 230 227 224 220 219 222 224 222 221 221 222 222 221 221 222 222 224 226 230 234 237 238 238 238 237 237 236 234 232 232 232 231 231 233 235 236 239 243 245 245 244 242 239 239 240 239 239 240 241 244 246 248 250 251 252 253 253 254 256 259 264 267 270 273 276 279 281 284 288 292 294 295 295
227 227 226 227 227 227 229 231 234 236 236 236 236 234 231 227 223 223 224 224 222 221 221 222 223 223 225 227 229 231 234 238 241 244 245 244 243 242 241 239 235 233 232 231 230 232 234 235 237 241 244 245 245 245 243 241 240 240 240 242 243 245 246 247 251 254 255 256 257 258 259 262 266 269 271 273 274 276 279 282 285 288 290 293 294
221 224 226 228 228 228 228 229 231 234 235 236 238 238 237 235 231 228 226 225 225 223 221 221 224 226 227 230 232 235 239 241 244 247 249 250 249 246 245 243 240 237 235 233 231 231 233 235 235 237 241 245 245 244 245 245 243 241 240 240 241 242 244 244 247 250 253 255 256 257 259 260 262 265 266 269 271 271 276 281 283 285 287 290 294
222 224 226 228 229 229 230 231 231 232 233 234 236 238 239 239 238 236 232 229 228 227 224 223 225 228 230 232 234 236 240 244 248 249 251 252 252 250 247 246 244 241 238 238 236 234 234 235 235 236 238 240 242 243 244 245 246 245 243 241 240 241 242 243 245 247 250 252 254 255 257 257 259 262 263 265 269 271 274 277 280 282 284 287 292
231 232 231 230 230 230 230 231 233 234 235 235 235 237 238 239 241 241 239 236 234 232 229 227 227 230 232 234 236 239 241 245 249 252 253 253 253 252 249 247 246 244 242 241 241 239 238 237 237 238 239 240 240 241 241 242 243 245 245 244 243 242 243 243 245 247 249 251 254 255 257 258 258 260 262 263 269 274 276 276 278 281 285 287 288
231 234 234 232 231 231 231 232 234 237 238 238 238 238 238 239 241 243 242 241 240 238 235 232 232 233 235 237 238 240 242 246 250 252 254 254 255 255 254 250 248 246 244 243 243 243 242 241 241 240 240 241 240 240 239 239 240 242 243 243 243 243 244 244 244 246 247 249 252 253 254 256 257 258 260 263 267 273 276 277 279 283 287 289 290
228 232 233 232 230 230 231 233 234 237 240 242 242 241 240 240 241 242 243 242 242 243 241 239 238 237 239 240 241 243 245 247 250 252 254 255 256 257 257 256 253 250 247 246 245 245 245 245 245 244 242 242 242 242 241 240 239 239 240 241 241 241 242 243 243 243 245 248 249 250 253 256 259 262 263 265 266 267 270 272 277 282 287 290 292
228 231 232 232 231 230 230 232 235 237 239 241 244 245 244 244 244 244 244 244 244 245 244 244 243 242 243 243 245 246 248 250 252 254 255 256 257 258 258 259 258 256 254 252 250 249 250 250 250 249 247 245 244 244 244 244 243 242 242 242 242 242 242 242 243 243 244 246 248 251 254 258 263 267 269 271 271 268 267 269 274 280 286 291 296
228 231 233 233 233 232 229 231 234 237 239 240 242 244 244 244 244 245 245 246 245 245 246 246 246 246 245 246 247 248 249 251 253 255 257 257 257 258 258 259 260 260 259 258 257 256 255 255 254 253 252 250 248 247 246 246 247 246 247 247 247 246 245 245 246 246 247 248 251 253 256 259 263 267 271 276 277 272 269 271 275 280 287 294 301
228 230 234 237 237 234 230 231 233 236 240 242 242 243 244 243 243 244 244 244 244 244 245 246 247 248 248 247 248 248 248 249 251 254 256 257 257 257 257 258 258 260 261 262 262 262 261 260 259 257 256 255 253 251 249 248 249 249 250 251 251 252 252 251 251 251 251 252 254 256 259 261 264 268 271 274 274 272 272 276 280 286 293 301 307
231 230 232 237 240 238 232 229 231 234 237 240 242 243 243 244 243 243 242 242 242 242 243 244 244 246 247 247 247 246 246 245 247 250 253 255 256 256 256 257 258 259 261 261 262 263 263 263 262 260 258 257 256 254 252 251 251 252 252 253 254 254 255 256 256 256 256 257 258 260 264 267 268 269 269 269 270 272 276 281 285 291 299 305 308
236 234 232 233 238 242 239 234 232 234 234 236 239 241 241 241 242 241 241 241 240 240 239 240 241 242 243 244 244 245 245 244 243 245 249 251 252 252 253 255 257 258 259 259 260 261 261 261 262 261 261 259 257 256 255 254 253 254 254 254 254 256 256 257 258 260 260 260 260 262 265 269 270 270 269 268 270 274 279 282 286 292 300 304 305
239 237 235 234 235 240 244 243 239 237 236 236 237 237 236 237 237 238 237 237 238 239 239 239 238 239 240 242 242 242 243 244 243 243 246 249 250 250 251 252 253 255 258 259 258 258 258 259 260 260 261 260 258 258 258 257 256 255 255 254 254 256 258 259 261 262 262 261 260 261 264 267 270 273 274 274 275 277 280 283 285 290 296 298 299
245 238 235 235 236 238 242 245 244 242 240 240 240 241 241 242 243 243 241 238 236 236 238 238 237 236 237 238 239 240 241 243 243 243 245 248 250 250 250 250 250 251 254 256 258 258 258 258 258 258 258 259 258 258 259 259 258 256 256 256 256 257 259 262 264 265 266 265 263 264 267 269 271 274 277 279 279 280 282 282 284 288 292 293 295
251 243 237 236 237 238 240 241 241 242 242 241 242 244 246 250 252 253 254 254 250 246 245 246 246 244 241 238 237 238 239 240 242 242 244 247 250 251 251 250 250 250 250 252 255 256 256 256 255 255 254 255 255 256 257 259 259 257 257 257 259 260 262 264 266 268 270 271 270 269 270 272 274 276 276 277 279 281 283 284 285 288 290 293 295
251 248 243 241 240 241 241 240 239 241 243 245 245 245 245 246 247 249 253 256 257 256 255 255 256 256 255 250 245 242 240 239 239 240 242 245 248 250 250 250 249 249 248 248 249 251 252 252 252 252 252 251 251 252 254 257 258 257 256 257 259 263 265 266 267 269 272 274 275 274 273 273 275 276 276 277 278 280 282 283 286 288 290 293 295
248 247 244 243 244 244 243 242 241 241 244 247 249 248 246 244 243 244 246 249 251 251 252 253 256 259 260 258 255 253 250 247 243 241 240 241 244 246 247 247 246 246 245 245 244 245 246 248 249 249 250 250 250 250 251 254 256 257 256 257 258 260 262 265 269 271 272 273 275 277 278 278 277 276 275 275 277 279 280 281 283 285 287 289 290
245 245 242 241 244 245 244 243 243 243 244 246 248 248 247 247 246 246 247 249 250 250 250 251 252 253 254 254 254 256 257 256 254 250 245 242 242 243 244 243 243 242 241 240 240 239 241 243 245 246 247 248 248 248 249 252 255 257 259 260 259 258 260 263 267 269 271 273 275 276 278 279 280 279 277 276 276 277 278 279 281 281 282 283 284
241 243 240 239 242 245 245 244 244 244 245 246 247 248 248 250 251 252 252 251 250 249 250 250 249 249 251 253 254 253 253 255 256 255 254 251 248 246 245 243 241 240 238 237 236 236 236 238 240 241 243 246 247 247 248 250 255 259 262 263 261 260 261 263 266 268 271 274 275 276 276 276 275 276 276 276 275 275 275 276 278 279 280 279 279
238 241 239 237 238 242 245 245 245 245 245 246 247 249 250 251 252 252 253 253 251 249 249 250 251 251 252 253 254 254 254 254 253 251 253 257 256 253 251 248 244 241 240 237 235 235 234 235 236 238 240 244 247 248 247 249 254 259 263 264 263 263 264 265 268 272 274 273 272 271 271 270 270 269 270 271 272 272 273 273 274 274 275 276 276
237 239 237 235 235 239 242 244 246 246 247 247 247 248 250 252 252 251 251 252 252 251 250 251 252 253 253 254 255 256 255 253 249 246 246 252 256 256 256 253 249 246 244 241 238 236 235 235 236 236 238 241 245 248 250 251 254 257 259 260 261 264 267 270 272 272 272 269 267 264 264 265 266 267 268 268 270 271 273 273 273 272 271 272 274
236 237 237 234 233 235 238 241 244 246 248 249 249 248 248 250 251 252 251 250 251 251 251 251 252 252 253 254 254 256 255 252 249 245 240 239 245 249 251 252 250 248 245 242 241 239 238 237 236 237 238 240 244 249 252 254 255 255 256 259 263 267 269 269 267 265 263 263 263 263 264 264 265 266 268 269 271 273 274 276 277 278 278 277 276
237 237 236 234 232 233 235 237 241 244 246 249 250 250 250 250 250 253 253 253 253 254 253 253 254 253 253 252 252 253 254 252 251 249 243 236 236 240 243 246 246 245 245 244 240 237 237 238 238 237 237 239 242 246 251 253 256 258 259 261 263 264 262 260 259 260 261 262 264 265 265 266 268 270 273 276 278 280 282 284 286 288 289 289 288
238 237 237 235 234 233 234 235 238 240 243 246 248 250 251 251 251 252 255 255 255 255 254 254 255 254 252 251 252 253 253 252 252 251 248 243 238 236 239 241 242 243 246 246 239 233 232 234 235 235 236 237 240 245 250 255 258 258 257 257 258 259 260 260 262 263 264 265 266 266 267 270 273 276 278 281 284 286 288 290 292 293 294 295 297
239 239 238 237 236 236 235 236 237 238 240 243 246 247 249 250 251 251 253 255 255 254 253 254 256 256 254 252 253 253 253 253 253 251 249 246 242 239 238 239 240 241 244 245 243 241 237 232 231 235 237 238 242 247 251 254 255 254 254 255 257 258 260 262 264 265 265 265 265 266 268 271 273 276 278 280 282 284 286 288 291 294 296 297 300
241 241 240 239 238 238 238 238 239 239 240 242 244 246 246 248 249 251 252 253 253 253 253 253 256 257 257 257 255 253 252 252 252 251 249 248 246 243 241 240 241 241 243 245 248 250 248 241 236 237 238 238 240 245 246 247 248 250 251 253 255 257 259 261 262 263 263 264 265 267 269 271 274 276 278 280 281 282 284 288 291 294 296 298 300
242 242 242 241 241 240 240 240 240 241 242 243 244 246 247 247 248 249 250 251 252 252 252 252 253 255 257 258 258 256 254 253 252 251 251 251 249 247 245 243 241 240 242 246 247 248 247 244 240 237 235 230 231 237 243 246 248 249 250 251 253 255 258 260 262 263 264 265 266 268 270 272 275 276 278 281 284 286 287 290 293 295 297 298 299
243 243 243 243 243 243 243 242 242 242 243 244 245 246 248 248 248 248 248 249 250 252 252 252 251 252 253 255 257 257 256 256 255 253 253 253 252 251 250 248 245 242 243 245 245 243 242 241 239 236 232 226 223 228 238 246 253 256 256 256 256 257 259 262 264 265 266 267 269 270 272 273 274 276 278 280 283 285 288 290 292 294 296 297 298
244 244 244 244 245 245 245 245 244 244 244 244 245 246 247 248 249 250 250 249 249 250 252 252 252 251 250 250 253 254 255 256 257 256 255 254 254 253 253 252 251 249 246 245 246 245 243 242 243 243 241 235 231 231 235 243 252 257 260 261 261 261 262 263 264 264 265 266 268 270 272 273 274 276 278 279 282 284 286 289 291 292 293 295 296
246 245 245 244 245 245 246 246 246 246 245 245 245 246 247 247 249 250 251 251 250 250 251 252 253 252 250 248 249 252 254 255 256 257 256 255 255 254 254 254 254 253 250 246 242 239 240 244 251 256 257 253 250 248 246 247 251 255 258 261 262 262 262 262 262 265 266 268 269 270 272 275 277 277 279 280 281 282 284 287 289 290 291 292 294
249 248 247 245 245 245 246 246 247 247 247 246 246 246 247 247 248 249 251 252 252 251 251 252 252 251 250 248 248 250 252 254 256 257 257 256 255 254 254 254 254 253 249 240 231 234 246 255 261 266 268 269 267 264 260 258 257 257 258 260 261 263 264 264 264 266 267 270 272 273 275 277 278 280 281 281 281 282 283 285 286 287 289 292 293
251 250 249 247 246 245 245 246 247 247 247 247 247 247 247 247 248 248 249 250 251 252 251 251 251 250 250 248 247 248 250 253 254 256 256 255 254 254 254 254 253 252 246 238 238 252 264 266 265 267 268 268 268 268 266 265 264 262 262 262 263 265 267 267 268 269 270 271 274 275 277 279 281 283 283 283 283 283 284 285 286 288 291 293 293
252 252 251 249 247 246 245 245 246 247 247 248 248 248 247 247 247 248 248 249 249 250 251 250 249 249 249 249 248 248 249 251 253 254 255 255 253 253 254 253 252 251 247 246 252 263 269 267 264 263 263 262 263 263 264 264 264 264 264 264 264 265 267 268 270 271 271 273 274 275 277 278 279 281 282 282 282 283 283 285 287 289 291 292 293
254 253 252 251 249 248 246 245 245 245 246 247 248 248 248 248 247 247 248 248 248 248 249 249 248 247 248 248 248 248 249 250 252 253 254 254 253 252 253 253 253 252 251 253 257 263 265 264 263 261 261 260 260 260 261 262 263 264 264 264 265 265 266 267 268 269 270 272 273 273 274 275 276 276 277 277 279 280 282 284 286 287 289 290 289
256 254 253 252 251 249 248 246 246 245 245 246 247 248 248 248 248 247 247 247 247 247 247 247 247 247 247 247 247 248 249 250 251 251 253 253 253 252 253 253 254 255 255 256 258 260 262 262 261 260 261 261 259 259 260 262 262 264 264 265 265 265 266 267 268 269 270 271 272 272 273 273 274 274 274 274 274 276 279 280 282 283 285 285 285
258 256 254 253 252 251 249 248 247 246 246 245 245 246 247 248 248 248 247 247 247 247 247 246 245 246 246 246 247 248 249 250 250 250 252 253 253 252 253 254 255 256 257 257 257 257 259 261 260 260 261 261 260 259 260 260 262 263 264 264 264 265 265 267 268 268 270 271 272 272 273 274 273 273 272 272 272 274 276 277 277 278 280 281 283
257 257 256 254 252 251 250 248 247 246 246 246 245 245 246 246 247 248 248 247 246 247 247 246 245 245 245 246 246 247 248 250 250 249 250 252 252 252 252 253 254 255 257 258 257 256 257 258 259 259 260 260 260 260 259 260 262 264 264 264 264 264 264 266 267 269 270 270 271 272 273 274 274 274 273 272 273 273 275 276 276 277 278 279 281
256 256 256 256 254 252 250 249 247 246 246 246 246 245 245 245 246 247 247 247 247 247 247 247 246 245 244 245 246 246 247 249 250 249 249 250 252 252 252 252 253 254 255 257 257 256 256 257 258 259 260 260 260 260 260 260 261 263 264 264 263 263 263 265 268 270 271 271 271 272 271 271 273 274 274 274 275 275 275 276 277 278 279 280 281
255 255 255 256 256 253 251 249 248 246 245 245 245 245 245 245 245 245 246 247 247 247 247 247 247 246 245 244 245 245 246 248 250 250 249 250 251 251 252 252 253 254 254 254 255 256 256 257 259 260 260 261 262 261 260 260 260 261 262 263 263 263 264 266 268 271 272 271 270 269 268 269 271 272 272 273 275 276 277 277 278 279 281 282 284
256 254 254 255 256 255 253 250 248 246 244 243 243 244 244 245 245 245 245 246 246 246 247 247 247 247 246 245 245 245 245 246 248 250 250 250 250 250 251 253 253 253 252 252 253 254 254 254 256 258 259 260 261 261 261 261 261 262 263 264 265 265 265 265 267 270 270 268 266 267 269 272 274 273 272 273 274 276 277 278 278 280 282 283 284
255 254 253 253 254 255 255 252 249 247 244 242 241 241 242 243 244 244 244 245 245 245 246 246 246 247 247 246 246 246 246 247 247 248 249 250 250 250 251 253 253 252 252 253 254 254 253 252 254 255 256 257 259 260 260 261 261 263 264 265 266 267 267 266 266 268 267 266 267 270 273 275 276 277 277 276 276 276 276 277 278 280 281 282 283
254 254 253 252 252 254 255 255 252 249 246 243 241 240 240 241 242 243 243 244 244 244 245 245 246 246 247 246 246 246 247 248 248 248 247 248 249 250 251 252 253 253 253 254 255 254 253 253 253 254 254 256 257 258 259 260 261 263 264 265 266 267 266 265 266 268 268 267 269 273 274 274 275 277 278 278 278 277 277 277 278 280 280 281 282
253 253 253 252 251 252 255 257 256 252 248 245 242 240 239 239 240 241 242 243 243 244 244 244 244 245 246 246 246 246 247 248 249 249 247 247 248 249 251 252 254 254 254 255 255 253 252 252 252 252 253 254 256 257 257 258 260 262 263 264 264 263 263 263 265 268 269 269 270 272 274 275 275 276 276 278 278 278 278 279 280 281 282 283 285
252 253 252 250 249 251 254 257 258 255 251 247 244 242 240 239 238 239 240 241 242 243 243 243 243 244 245 245 246 246 246 247 249 250 248 247 248 249 251 252 253 254 254 255 254 252 250 250 251 252 252 253 255 256 256 257 258 259 259 260 260 261 261 263 265 267 268 269 270 272 273 274 275 275 275 276 277 278 279 280 281 282 283 285 287
252 252 250 248 248 250 254 257 258 257 254 251 247 244 242 240 239 238 238 239 240 241 242 243 243 243 243 244 245 246 245 246 247 249 250 249 248 249 250 251 252 252 254 254 254 251 249 249 250 251 251 253 254 255 255 256 256 255 256 256 258 259 261 262 263 265 267 268 269 270 271 272 272 273 274 274 276 277 278 279 280 282 284 285 288
252 250 248 246 247 250 254 258 259 259 256 253 250 247 244 241 240 238 238 238 239 240 241 242 242 242 242 243 244 244 245 244 245 248 250 250 250 250 250 250 250 251 252 253 252 249 246 245 247 248 250 251 252 253 253 254 254 255 256 257 257 258 260 261 262 263 264 265 267 268 269 270 271 271 272 272 274 276 277 278 280 281 283 284 286
253 250 247 245 246 251 255 258 260 259 257 256 253 250 246 243 241 239 238 238 238 238 239 240 241 241 241 241 242 243 244 244 244 246 248 250 251 251 250 249 248 248 248 250 250 247 244 244 245 247 248 249 250 250 251 252 253 254 255 256 257 258 258 259 260 261 262 263 264 265 266 268 268 269 270 270 271 272 274 276 278 280 282 283 285
252 248 246 245 247 251 255 258 259 258 257 256 255 253 250 246 242 240 239 238 237 237 238 239 239 240 240 241 241 242 242 243 243 243 245 247 249 249 248 245 243 242 242 243 244 244 245 246 247 248 249 249 248 248 249 250 252 253 254 254 255 256 257 257 258 258 259 260 261 263 264 265 266 267 267 268 269 269 271 273 275 277 279 281 282
Height
5929 5930 5931 5932 5934 5935 5936 5938 5939 5940 5942 5943 5944 5946 5947 5948 5950 5951 5952 5953 5954 5955 5956 5957 5958 5959 5959 5960 5961 5961 5962 5963 5963 5964 5965 5966 5967 5968 5969 5970 5970 5971 5971 5972 5972 5973 5973 5973 5974 5975 5975 5976 5977 5978 5978 5978 5979 5980 5980 5981 5982 5982 5983 5983 5984 5984 5985 5985 5985 5986 5986 5986 5986 5986 5986 5986 5986 5986 5985 5985 5984 5984 5984 5983 5982
5928 5929 5930 5931 5932 5933 5935 5937 5938 5940 5941 5942 5943 5944 5946 5947 5948 5950 5951 5952 5953 5955 5955 5956 5957 5958 5959 5959 5960 5961 5961 5962 5962 5963 5964 5965 5966 5967 5968 5969 5969 5970 5970 5971 5972 5972 5973 5973 5974 5974 5975 5976 5976 5977 5978 5978 5979 5980 5980 5981 5981 5982 5982 5983 5983 5984 5984 5985 5985 5985 5985 5985 5985 5985 5985 5985 5985 5985 5984 5984 5983 5983 5982 5982 5982
5926 5928 5929 5930 5931 5932 5933 5935 5937 5939 5940 5941 5942 5943 5944 5945 5947 5948 5949 5950 5952 5953 5954 5955 5956 5957 5958 5959 5959 5960 5961 5961 5962 5962 5963 5964 5965 5966 5967 5968 5968 5969 5970 5970 5971 5971 5972 5973 5973 5974 5974 5975 5976 5976 5977 5978 5978 5979 5980 5980 5981 5981 5982 5982 5982 5983 5983 5984 5984 5984 5984 5985 5985 5985 5985 5985 5984 5984 5983 5983 5982 5982 5981 5980 5980
5924 5925 5927 5928 5929 5930 5932 5934 5936 5938 5939 5940 5941 5942 5943 5944 5945 5946 5948 5949 5950 5952 5953 5954 5955 5956 5957 5958 5959 5959 5960 5961 5961 5962 5962 5963 5964 5965 5966 5967 5967 5968 5969 5969 5970 5971 5971 5972 5972 5973 5974 5974 5975 5975 5976 5977 5978 5978 5979 5979 5980 5980 5981 5981 5982 5982 5982 5983 5983 5983 5984 5984 5984 5984 5984 5984 5983 5983 5982 5982 5981 5981 5980 5978 5978
5920 5922 5924 5926 5927 5929 5930 5932 5934 5936 5937 5939 5940 5941 5942 5943 5944 5945 5946 5947 5949 5950 5952 5953 5954 5955 5956 5957 5958 5959 5960 5960 5961 5962 5962 5963 5963 5964 5965 5966 5966 5967 5968 5968 5969 5970 5970 5971 5971 5972 5973 5973 5974 5975 5975 5976 5976 5977 5978 5978 5979 5979 5980 5980 5981 5981 5981 5982 5982 5982 5983 5983 5983 5983 5983 5982 5982 5982 5981 5981 5980 5979 5979 5977 5976
5916 5919 5921 5923 5925 5927 5928 5930 5932 5933 5935 5937 5938 5939 5941 5942 5943 5944 5945 5946 5947 5949 5950 5952 5953 5954 5955 5956 5957 5958 5959 5960 5960 5961 5961 5962 5963 5963 5964 5965 5965 5966 5967 5968 5968 5969 5969 5970 5970 5971 5972 5972 5973 5973 5974 5975 5975 5976 5976 5977 5978 5978 5979 5979 5979 5980 5980 5980 5981 5981 5981 5982 5982 5981 5981 5981 5981 5980 5980 5980 5979 5978 5977 5976 5975
5916 5916 5918 5919 5922 5925 5926 5928 5929 5930 5932 5934 5936 5938 5939 5940 5941 5942 5943 5945 5946 5947 5949 5950 5951 5953 5954 5955 5956 5957 5958 5959 5959 5960 5961 5961 5962 5962 5963 5963 5964 5965 5966 5967 5967 5968 5968 5969 5969 5970 5971 5971 5972 5972 5973 5973 5974 5974 5975 5975 5976 5977 5977 5978 5978 5978 5979 5979 5979 5980 5980 5980 5980 5980 5980 5980 5979 5979 5979 5979 5978 5977 5976 5975 5975
5915 5916 5916 5918 5920 5922 5924 5925 5926 5928 5930 5932 5934 5936 5937 5938 5940 5941 5943 5944 5945 5946 5948 5949 5950 5951 5953 5954 5955 5956 5957 5957 5958 5959 5959 5960 5960 5961 5962 5962 5963 5964 5965 5966 5966 5967 5967 5968 5968 5969 5970 5970 5971 5971 5972 5972 5972 5973 5973 5974 5975 5975 5976 5976 5977 5977 5977 5977 5978 5978 5979 5979 5979 5979 5978 5978 5978 5978 5978 5977 5976 5975 5975 5975 5974
5912 5914 5915 5916 5917 5918 5920 5922 5924 5926 5928 5930 5932 5934 5935 5937 5938 5939 5941 5943 5944 5945 5946 5948 5949 5950 5951 5953 5954 5955 5955 5956 5957 5957 5958 5958 5959 5960 5960 5961 5962 5963 5963 5964 5965 5965 5966 5967 5967 5968 5969 5969 5970 5970 5971 5971 5971 5972 5972 5973 5973 5974 5974 5974 5975 5975 5975 5976 5976 5977 5977 5977 5977 5977 5977 5977 5977 5976 5976 5975 5975 5974 5974 5973 5972
5908 5911 5913 5914 5914 5915 5917 5919 5922 5924 5926 5928 5930 5932 5934 5935 5936 5938 5939 5941 5942 5943 5945 5946 5948 5949 5950 5951 5952 5953 5954 5955 5955 5955 5956 5957 5957 5958 5959 5960 5960 5961 5962 5963 5963 5964 5964 5965 5966 5966 5967 5968 5969 5969 5970 5970 5970 5971 5971 5971 5972 5972 5972 5973 5973 5974 5974 5974 5975 5975 5975 5976 5975 5975 5976 5976 5975 5975 5974 5974 5973 5973 5972 5971 5971
5903 5906 5909 5912 5912 5912 5913 5916 5919 5921 5923 5925 5927 5929 5931 5933 5935 5936 5938 5939 5940 5942 5943 5945 5946 5947 5948 5950 5951 5952 5953 5953 5954 5954 5954 5955 5956 5957 5957 5958 5959 5960 5960 5961 5962 5962 5963 5963 5964 5965 5966 5966 5967 5968 5968 5969 5969 5969 5970 5970 5970 5970 5971 5971 5971 5972 5972 5973 5973 5973 5974 5974 5974 5973 5973 5974 5974 5973 5973 5972 5972 5971 5971 5970 5969
5899 5902 5905 5909 5911 5910 5910 5912 5915 5917 5920 5922 5924 5926 5928 5930 5932 5934 5936 5937 5938 5939 5941 5942 5944 5945 5946 5948 5949 5950 5951 5952 5952 5952 5952 5953 5954 5954 5955 5956 5957 5958 5959 5960 5960 5961 5961 5962 5962 5963 5963 5964 5965 5965 5966 5967 5967 5968 5968 5968 5968 5969 5969 5969 5969 5970 5971 5971 5971 5972 5972 5972 5972 5971 5971 5971 5971 5971 5971 5970 5970 5969 5969 5969 5968
5897 5900 5904 5908 5910 5908 5907 5908 5910 5913 5916 5918 5920 5922 5924 5926 5928 5930 5932 5933 5935 5936 5938 5940 5941 5942 5944 5946 5947 5948 5949 5950 5950 5950 5950 5950 5951 5952 5953 5954 5955 5956 5957 5958 5958 5959 5959 5960 5960 5961 5961 5962 5962 5963 5964 5964 5965 5966 5966 5967 5967 5967 5967 5967 5967 5968 5969 5969 5969 5970 5970 5970 5970 5970 5970 5970 5970 5969 5969 5969 5968 5968 5967 5967 5966
5895 5898 5901 5905 5907 5906 5906 5906 5906 5908 5911 5914 5916 5918 5920 5922 5924 5926 5927 5928 5930 5932 5935 5936 5938 5939 5941 5942 5944 5945 5946 5947 5948 5948 5948 5948 5948 5949 5950 5951 5952 5954 5955 5955 5956 5957 5957 5958 5958 5958 5959 5959 5960 5960 5961 5962 5962 5963 5964 5964 5965 5965 5965 5965 5965 5966 5967 5967 5968 5968 5968 5968 5968 5968 5968 5968 5968 5967 5967 5967 5966 5966 5966 5965 5965
5893 5894 5897 5900 5902 5903 5904 5904 5904 5905 5906 5908 5911 5913 5915 5917 5918 5920 5922 5923 5925 5927 5929 5931 5933 5935 5937 5938 5940 5941 5942 5943 5944 5945 5945 5945 5945 5946 5947 5949 5950 5951 5952 5953 5953 5954 5954 5955 5955 5956 5956 5957 5957 5958 5958 5959 5960 5961 5962 5962 5962 5962 5963 5963 5963 5963 5964 5965 5966 5966 5966 5966 5966 5966 5966 5966 5966 5966 5965 5965 5964 5964 5964 5963 5962
5889 5891 5893 5895 5897 5899 5902 5903 5903 5902 5902 5903 5904 5906 5907 5909 5911 5913 5914 5916 5919 5922 5924 5926 5928 5930 5932 5934 5935 5937 5938 5939 5940 5942 5941 5941 5941 5942 5944 5946 5947 5948 5949 5949 5950 5951 5951 5952 5952 5953 5953 5954 5955 5955 5956 5956 5957 5958 5959 5959 5960 5960 5960 5961 5961 5961 5962 5963 5964 5964 5964 5964 5964 5964 5964 5964 5964 5964 5963 5963 5962 5962 5962 5961 5960
5884 5887 5888 5890 5892 5894 5897 5899 5900 5899 5898 5899 5899 5901 5904 5906 5908 5910 5912 5913 5916 5919 5920 5920 5921 5923 5925 5927 5930 5932 5934 5934 5936 5937 5937 5937 5937 5939 5940 5942 5944 5945 5946 5946 5946 5947 5948 5949 5949 5950 5950 5951 5952 5952 5953 5953 5954 5956 5956 5956 5957 5958 5958 5958 5958 5959 5960 5961 5962 5962 5962 5962 5962 5962 5961 5961 5961 5961 5961 5961 5959 5959 5960 5959 5958
5879 5882 5883 5885 5887 5889 5891 5894 5895 5894 5893 5893 5894 5898 5902 5906 5908 5910 5912 5914 5917 5919 5920 5919 5920 5921 5922 5923 5925 5927 5928 5929 5930 5932 5933 5933 5933 5934 5936 5937 5939 5941 5942 5942 5943 5944 5944 5945 5945 5946 5947 5948 5948 5949 5950 5950 5951 5952 5953 5953 5954 5955 5956 5956 5956 5956 5957 5958 5959 5960 5960 5960 5960 5959 5959 5958 5958 5958 5958 5958 5957 5956 5957 5957 5956
5874 5876 5878 5880 5882 5884 5886 5888 5889 5889 5887 5886 5889 5894 5899 5901 5903 5905 5908 5911 5916 5918 5919 5920 5921 5922 5922 5922 5923 5924 5924 5924 5925 5926 5928 5928 5929 5930 5931 5932 5935 5937 5937 5938 5939 5939 5940 5941 5941 5942 5943 5944 5944 5945 5946 5946 5948 5949 5950 5950 5952 5953 5953 5952 5952 5953 5954 5955 5956 5957 5958 5958 5957 5957 5957 5956 5955 5955 5955 5955 5954 5953 5953 5953 5953
5870 5872 5874 5875 5877 5879 5880 5883 5884 5884 5883 5882 5886 5891 5894 5894 5896 5899 5902 5906 5910 5913 5914 5915 5917 5919 5920 5921 5922 5923 5923 5922 5922 5923 5923 5923 5924 5924 5925 5928 5930 5932 5932 5933 5934 5935 5935 5936 5937 5938 5939 5939 5940 5941 5942 5943 5944 5945 5946 5947 5949 5950 5949 5948 5949 5950 5951 5952 5953 5954 5954 5955 5955 5955 5954 5953 5952 5951 5951 5951 5951 5950 5950 5950 5950
5866 5868 5870 5871 5873 5874 5875 5877 5878 5879 5879 5880 5883 5887 5890 5890 5892 5896 5899 5903 5906 5908 5910 5911 5913 5914 5915 5916 5918 5922 5923 5922 5922 5923 5921 5921 5920 5920 5921 5923 5926 5927 5927 5928 5929 5930 5931 5932 5933 5934 5935 5935 5936 5937 5938 5939 5939 5941 5943 5945 5946 5946 5945 5945 5946 5946 5947 5948 5949 5950 5951 5951 5951 5951 5950 5949 5948 5947 5947 5947 5947 5946 5946 5946 5946
5862 5863 5865 5866 5868 5870 5870 5871 5873 5873 5874 5876 5879 5882 5885 5887 5891 5895 5897 5899 5902 5904 5906 5908 5908 5909 5910 5911 5914 5917 5918 5918 5920 5921 5921 5920 5919 5918 5919 5921 5922 5922 5923 5923 5924 5925 5927 5928 5929 5930 5931 5931 5931 5933 5934 5935 5936 5937 5939 5941 5941 5941 5941 5942 5942 5942 5943 5945 5945 5946 5947 5947 5947 5946 5945 5945 5944 5943 5942 5943 5943 5942 5942 5942 5942
5856 5858 5860 5861 5863 5865 5865 5866 5867 5867 5868 5870 5874 5878 5880 5882 5887 5891 5893 5895 5898 5900 5902 5904 5905 5907 5908 5909 5910 5912 5913 5914 5916 5917 5917 5918 5918 5918 5919 5919 5919 5919 5920 5920 5921 5921 5922 5923 5924 5926 5926 5927 5927 5928 5930 5931 5932 5934 5936 5936 5936 5937 5937 5938 5939 5939 5940 5940 5941 5942 5942 5941 5941 5941 5940 5940 5939 5938 5938 5938 5939 5938 5938 5938 5937
5850 5852 5854 5856 5858 5859 5860 5861 5862 5862 5863 5864 5868 5873 5875 5877 5880 5884 5888 5891 5893 5896 5898 5900 5901 5903 5904 5905 5907 5908 5909 5910 5910 5911 5912 5913 5913 5915 5917 5918 5917 5917 5917 5918 5917 5917 5918 5920 5920 5921 5922 5922 5923 5924 5925 5927 5929 5931 5931 5931 5932 5933 5934 5935 5935 5936 5936 5936 5936 5937 5937 5936 5936 5936 5935 5935 5934 5934 5933 5933 5933 5933 5934 5934 5933
5844 5846 5848 5850 5852 5853 5855 5856 5857 5857 5858 5859 5862 5866 5869 5872 5875 5878 5881 5885 5889 5891 5893 5895 5896 5898 5900 5901 5903 5904 5905 5905 5905 5905 5907 5907 5907 5908 5911 5914 5915 5913 5913 5914 5913 5913 5914 5916 5916 5917 5918 5918 5919 5920 5921 5924 5926 5927 5927 5927 5928 5929 5930 5931 5931 5932 5932 5932 5932 5932 5932 5932 5931 5931 5931 5930 5930 5930 5929 5929 5929 5929 5929 5930 5930
5837 5839 5842 5844 5845 5847 5849 5851 5852 5852 5852 5853 5856 5859 5862 5866 5869 5871 5873 5878 5883 5885 5887 5888 5891 5893 5895 5897 5898 5899 5900 5901 5901 5900 5901 5902 5902 5902 5903 5907 5910 5910 5909 5910 5909 5909 5910 5910 5911 5912 5913 5914 5915 5916 5918 5920 5922 5923 5924 5924 5924 5925 5926 5926 5927 5927 5928 5929 5929 5929 5929 5928 5927 5927 5927 5927 5927 5926 5925 5925 5926 5926 5925 5925 5925
5829 5832 5835 5837 5839 5840 5842 5845 5846 5847 5847 5848 5850 5853 5856 5859 5863 5865 5866 5870 5875 5878 5880 5882 5884 5887 5889 5891 5893 5894 5895 5896 5896 5896 5897 5898 5898 5898 5898 5900 5902 5905 5907 5906 5904 5904 5905 5905 5905 5906 5908 5909 5911 5913 5915 5917 5918 5919 5920 5920 5921 5921 5922 5922 5923 5924 5925 5925 5925 5925 5925 5924 5924 5924 5924 5923 5923 5923 5922 5921 5922 5922 5922 5921 5921
5822 5824 5827 5829 5831 5833 5836 5838 5840 5841 5842 5843 5844 5847 5850 5853 5856 5859 5861 5864 5868 5872 5874 5877 5879 5881 5883 5885 5887 5888 5890 5891 5891 5891 5892 5893 5894 5894 5894 5894 5895 5899 5902 5903 5902 5902 5902 5903 5903 5903 5904 5906 5908 5910 5912 5914 5915 5915 5916 5917 5917 5917 5918 5918 5919 5920 5921 5921 5921 5921 5921 5921 5921 5920 5920 5920 5920 5919 5918 5917 5918 5918 5918 5917 5918
5814 5816 5818 5820 5822 5825 5829 5832 5834 5835 5837 5837 5838 5840 5843 5846 5849 5852 5854 5858 5861 5865 5868 5871 5873 5875 5877 5879 5880 5881 5883 5885 5886 5886 5887 5889 5891 5891 5890 5891 5893 5895 5896 5899 5902 5904 5904 5905 5904 5903 5903 5903 5905 5906 5908 5909 5910 5911 5912 5913 5913 5914 5914 5914 5915 5916 5916 5916 5917 5917 5917 5917 5917 5917 5916 5916 5916 5915 5914 5914 5914 5914 5914 5913 5913
5807 5808 5809 5811 5814 5817 5821 5824 5826 5828 5830 5831 5832 5833 5836 5839 5842 5845 5848 5851 5855 5858 5861 5864 5866 5868 5871 5874 5874 5875 5877 5879 5880 5881 5883 5884 5886 5886 5886 5888 5890 5891 5891 5893 5897 5901 5903 5904 5904 5903 5901 5899 5899 5901 5903 5904 5906 5907 5908 5909 5910 5910 5910 5911 5911 5912 5912 5912 5912 5913 5913 5913 5913 5913 5912 5912 5912 5911 5911 5911 5911 5911 5910 5910 5909
5799 5800 5801 5803 5806 5809 5812 5815 5818 5821 5822 5824 5826 5827 5829 5830 5833 5836 5840 5844 5849 5852 5854 5857 5859 5861 5864 5867 5868 5869 5871 5873 5874 5876 5878 5880 5881 5882 5882 5884 5886 5887 5887 5888 5891 5895 5898 5900 5900 5900 5897 5894 5893 5894 5897 5900 5902 5903 5904 5905 5906 5906 5907 5907 5907 5908 5908 5908 5908 5909 5909 5909 5909 5909 5909 5908 5908 5907 5907 5907 5907 5907 5906 5905 5905
5791 5792 5793 5795 5798 5800 5803 5805 5808 5812 5814 5816 5818 5820 5822 5824 5825 5827 5831 5836 5841 5844 5847 5849 5852 5854 5856 5859 5861 5863 5865 5867 5868 5870 5872 5874 5875 5876 5877 5878 5880 5881 5882 5883 5886 5890 5893 5895 5897 5897 5895 5892 5890 5888 5890 5894 5898 5899 5900 5902 5902 5903 5903 5903 5903 5903 5903 5904 5904 5904 5904 5905 5905 5905 5905 5905 5904 5904 5903 5903 5903 5903 5902 5901 5901
5782 5784 5785 5787 5789 5791 5793 5796 5799 5802 5805 5808 5810 5812 5814 5817 5818 5819 5822 5827 5831 5836 5840 5842 5845 5847 5849 5851 5853 5856 5859 5860 5862 5864 5866 5868 5869 5870 5871 5872 5873 5875 5877 5879 5881 5883 5885 5888 5892 5893 5892 5889 5886 5884 5884 5888 5892 5895 5896 5897 5898 5899 5899 5899 5899 5899 5900 5900 5900 5900 5901 5901 5901 5901 5901 5901 5901 5900 5900 5899 5899 5898 5898 5897 5897
5773 5776 5777 5779 5781 5783 5785 5786 5789 5792 5796 5799 5801 5803 5806 5809 5811 5812 5814 5818 5822 5826 5831 5834 5836 5840 5842 5843 5846 5848 5851 5853 5855 5857 5859 5862 5864 5865 5867 5868 5868 5870 5873 5875 5875 5876 5877 5880 5884 5886 5885 5882 5879 5879 5881 5885 5888 5890 5891 5892 5893 5894 5894 5895 5895 5896 5896 5896 5897 5897 5897 5897 5897 5897 5897 5897 5896 5896 5896 5895 5895 5894 5893 5893 5892
5763 5765 5767 5769 5772 5774 5776 5777 5780 5783 5786 5789 5792 5794 5797 5800 5803 5805 5807 5810 5813 5817 5821 5824 5828 5831 5833 5836 5838 5841 5844 5846 5848 5850 5852 5855 5858 5860 5861 5863 5863 5865 5868 5869 5869 5870 5872 5874 5876 5878 5878 5877 5876 5877 5879 5882 5883 5884 5886 5887 5888 5889 5889 5889 5890 5891 5892 5892 5892 5893 5893 5893 5893 5893 5892 5892 5891 5891 5891 5891 5890 5889 5888 5888 5887
5752 5754 5756 5758 5761 5764 5767 5769 5771 5774 5776 5779 5781 5784 5787 5791 5794 5796 5799 5802 5805 5809 5812 5815 5819 5822 5825 5827 5830 5833 5836 5839 5841 5843 5845 5848 5851 5853 5855 5857 5858 5859 5861 5863 5864 5865 5867 5869 5871 5873 5874 5874 5874 5875 5876 5877 5878 5879 5881 5881 5882 5883 5884 5884 5885 5886 5886 5887 5887 5888 5888 5888 5888 5888 5887 5886 5885 5885 5885 5885 5885 5884 5883 5882 5882
5741 5743 5744 5747 5751 5755 5758 5760 5762 5764 5767 5770 5772 5774 5777 5781 5784 5788 5791 5794 5797 5801 5804 5807 5810 5813 5815 5818 5821 5825 5828 5831 5833 5835 5837 5840 5843 5845 5848 5850 5852 5853 5854 5856 5858 5860 5861 5863 5865 5867 5868 5869 5870 5871 5872 5872 5873 5874 5874 5875 5876 5877 5878 5878 5879 5880 5881 5881 5882 5882 5882 5882 5882 5882 5881 5881 5880 5879 5879 5880 5879 5878 5877 5876 5875
5729 5732 5734 5737 5740 5743 5746 5750 5753 5755 5758 5760 5762 5764 5767 5770 5774 5778 5782 5785 5788 5792 5796 5800 5802 5804 5806 5809 5814 5818 5820 5822 5825 5827 5829 5831 5834 5837 5840 5842 5844 5846 5847 5850 5851 5853 5854 5856 5858 5860 5861 5863 5864 5866 5866 5867 5868 5868 5869 5869 5870 5871 5872 5872 5873 5874 5875 5876 5876 5875 5875 5875 5876 5875 5875 5874 5874 5874 5874 5874 5873 5872 5871 5870 5869
5719 5721 5724 5726 5728 5731 5734 5739 5743 5745 5748 5750 5753 5755 5757 5760 5764 5768 5772 5775 5779 5782 5787 5791 5795 5796 5797 5801 5807 5810 5812 5814 5817 5819 5821 5823 5825 5828 5832 5834 5836 5838 5840 5842 5843 5845 5847 5849 5850 5852 5854 5855 5857 5859 5860 5861 5861 5862 5862 5863 5863 5864 5865 5866 5867 5869 5870 5870 5869 5869 5868 5869 5869 5869 5868 5868 5868 5868 5867 5867 5866 5866 5865 5864 5863
5710 5711 5713 5715 5717 5719 5722 5727 5731 5734 5737 5740 5743 5745 5748 5751 5754 5757 5761 5765 5769 5772 5776 5781 5786 5788 5790 5794 5798 5801 5803 5805 5809 5811 5813 5815 5817 5819 5822 5825 5828 5830 5832 5833 5835 5836 5839 5841 5843 5844 5846 5848 5850 5851 5853 5854 5855 5855 5855 5856 5856 5857 5858 5859 5861 5863 5864 5864 5863 5862 5862 5863 5863 5862 5861 5862 5862 5862 5861 5860 5859 5859 5860 5859 5858
5702 5702 5703 5704 5706 5709 5711 5714 5718 5722 5725 5729 5732 5735 5738 5741 5744 5747 5750 5754 5758 5762 5766 5771 5776 5780 5783 5786 5790 5792 5794 5797 5800 5803 5805 5807 5809 5811 5813 5816 5818 5821 5823 5825 5826 5828 5830 5833 5835 5837 5838 5840 5842 5844 5845 5846 5847 5847 5847 5847 5847 5849 5850 5853 5854 5856 5857 5857 5856 5855 5854 5855 5856 5855 5855 5855 5855 5855 5854 5853 5852 5852 5853 5852 5851
5693 5694 5694 5695 5697 5699 5701 5703 5705 5708 5712 5716 5720 5723 5727 5731 5734 5737 5740 5743 5747 5752 5756 5760 5765 5770 5774 5778 5781 5783 5786 5788 5791 5794 5797 5800 5802 5803 5805 5807 5810 5813 5815 5816 5818 5821 5824 5826 5829 5830 5831 5833 5835 5836 5837 5838 5839 5840 5839 5839 5839 5841 5842 5845 5847 5849 5849 5849 5847 5845 5844 5846 5849 5849 5849 5849 5849 5848 5847 5846 5845 5845 5845 5845 5844
5685 5686 5687 5687 5688 5689 5690 5692 5693 5696 5699 5703 5707 5711 5715 5720 5724 5727 5730 5733 5737 5741 5745 5750 5754 5759 5764 5769 5772 5774 5777 5780 5782 5785 5788 5791 5793 5796 5798 5800 5802 5804 5806 5808 5811 5814 5816 5818 5820 5822 5824 5825 5827 5828 5828 5829 5830 5832 5832 5832 5832 5833 5835 5837 5839 5841 5841 5839 5837 5836 5837 5840 5840 5840 5841 5842 5842 5841 5840 5839 5839 5838 5838 5838 5837
5675 5677 5678 5679 5679 5680 5681 5682 5683 5684 5687 5690 5695 5699 5703 5707 5711 5715 5719 5723 5726 5730 5734 5739 5743 5748 5753 5759 5763 5765 5767 5771 5774 5776 5779 5782 5785 5787 5790 5791 5793 5796 5798 5801 5803 5806 5808 5810 5812 5814 5815 5817 5819 5820 5820 5821 5822 5823 5824 5824 5825 5826 5827 5829 5831 5832 5832 5831 5830 5831 5832 5833 5832 5832 5833 5834 5834 5833 5833 5832 5832 5832 5832 5831 5830
5666 5668 5669 5670 5671 5672 5673 5673 5673 5674 5676 5678 5682 5686 5690 5694 5699 5703 5708 5712 5716 5720 5724 5728 5732 5737 5742 5748 5753 5756 5758 5761 5764 5767 5770 5773 5776 5779 5781 5783 5785 5788 5790 5792 5795 5797 5799 5802 5804 5806 5808 5809 5811 5812 5813 5814 5814 5815 5816 5816 5817 5818 5819 5820 5822 5824 5824 5824 5824 5824 5825 5825 5825 5826 5826 5825 5825 5825 5826 5826 5825 5825 5825 5824 5824
5657 5659 5660 5661 5662 5664 5665 5665 5665 5665 5666 5668 5670 5674 5678 5682 5686 5691 5696 5700 5705 5709 5713 5717 5721 5726 5731 5736 5742 5746 5750 5752 5755 5757 5760 5764 5767 5770 5773 5775 5777 5780 5782 5784 5786 5788 5790 5793 5795 5798 5800 5801 5803 5804 5806 5807 5807 5808 5808 5809 5809 5810 5811 5813 5814 5815 5816 5816 5816 5816 5817 5817 5818 5818 5818 5817 5818 5818 5818 5818 5818 5817 5817 5817 5817
5649 5650 5651 5653 5654 5656 5657 5657 5657 5657 5658 5659 5661 5663 5666 5670 5674 5678 5683 5688 5693 5698 5702 5706 5710 5715 5720 5724 5729 5735 5740 5743 5745 5748 5751 5754 5757 5760 5764 5766 5768 5770 5773 5774 5776 5779 5781 5784 5787 5789 5791 5793 5794 5796 5798 5799 5800 5801 5802 5802 5802 5802 5804 5805 5806 5807 5807 5808 5809 5809 5809 5809 5810 5810 5810 5810 5810 5811 5811 5811 5811 5809 5809 5809 5809
5641 5642 5643 5645 5646 5648 5649 5649 5649 5649 5649 5650 5652 5654 5656 5659 5662 5667 5672 5677 5682 5687 5691 5695 5700 5705 5709 5713 5718 5723 5728 5733 5736 5739 5742 5745 5748 5751 5754 5757 5759 5761 5763 5765 5767 5769 5772 5775 5778 5780 5782 5784 5785 5787 5789 5791 5792 5793 5794 5795 5795 5796 5796 5797 5798 5799 5799 5800 5800 5801 5801 5801 5802 5802 5802 5803 5803 5803 5803 5803 5803 5802 5801 5801 5801
5633 5634 5635 5637 5638 5639 5641 5641 5642 5642 5642 5642 5643 5645 5647 5649 5652 5656 5661 5666 5671 5675 5680 5685 5690 5694 5698 5702 5707 5712 5716 5722 5726 5729 5732 5735 5738 5742 5745 5747 5750 5752 5754 5756 5758 5760 5763 5766 5769 5771 5773 5775 5776 5778 5780 5782 5783 5785 5786 5787 5787 5788 5788 5789 5790 5791 5791 5792 5792 5793 5793 5794 5794 5794 5794 5794 5795 5795 5795 5795 5795 5794 5793 5793 5793
5625 5626 5628 5629 5631 5632 5633 5634 5634 5634 5634 5635 5636 5637 5639 5641 5643 5647 5651 5655 5660 5664 5668 5674 5679 5683 5687 5692 5697 5701 5705 5711 5716 5720 5723 5726 5729 5732 5735 5737 5740 5742 5744 5746 5749 5752 5754 5757 5759 5761 5763 5765 5767 5769 5770 5772 5774 5775 5776 5777 5778 5779 5780 5780 5781 5782 5783 5783 5784 5785 5785 5786 5786 5786 5787 5787 5787 5787 5787 5787 5787 5786 5785 5785 5785
5618 5619 5620 5622 5624 5625 5626 5626 5627 5627 5627 5628 5629 5630 5631 5633 5635 5638 5642 5646 5650 5654 5658 5663 5668 5673 5677 5681 5686 5691 5695 5700 5705 5710 5714 5717 5720 5723 5726 5728 5730 5732 5734 5737 5739 5742 5745 5748 5750 5751 5753 5755 5757 5759 5761 5762 5764 5765 5767 5768 5769 5770 5770 5771 5772 5773 5774 5775 5775 5776 5777 5778 5778 5778 5779 5779 5779 5779 5779 5779 5779 5778 5777 5776 5776